Time,TemperatureF,DewpointF,PressureIn,WindDirection,WindDirectionDegrees,WindSpeedMPH,WindSpeedGustMPH,Humidity,HourlyPrecipIn,Conditions,Clouds,dailyrainin,SoftwareType,DateUTC
2013-05-06 00:00:00,53.5,47.2,29.90,ESE,120,5.0,9.0,79,0.00,,---,0.55,VWS V14.01,2013-05-06 04:00:00,
2013-05-06 00:01:00,53.5,47.2,29.90,ESE,115,4.0,5.0,79,0.00,,---,0.00,VWS V14.01,2013-05-06 04:01:00,
2013-05-06 00:06:00,53.5,47.2,29.90,ESE,121,7.0,8.0,79,0.00,,---,0.00,VWS V14.01,2013-05-06 04:06:00,
2013-05-06 00:11:00,53.6,47.3,29.90,ESE,115,4.0,8.0,79,0.00,,---,0.00,VWS V14.01,2013-05-06 04:11:00,
2013-05-06 00:16:00,53.5,47.5,29.90,ESE,115,4.0,8.0,80,0.00,,---,0.00,VWS V14.01,2013-05-06 04:16:00,
2013-05-06 00:21:00,53.5,47.5,29.90,SE,127,1.0,8.0,80,0.00,,---,0.00,VWS V14.01,2013-05-06 04:21:00,
2013-05-06 00:26:00,53.5,47.5,29.91,East,90,2.0,8.0,80,0.00,,---,0.00,VWS V14.01,2013-05-06 04:26:00,
2013-05-06 00:30:00,53.5,47.5,29.90,East,96,1.0,8.0,80,0.00,,---,0.00,VWS V14.01,2013-05-06 04:30:00,
2013-05-06 00:31:00,53.5,47.5,29.90,East,80,6.0,6.0,80,0.00,,---,0.00,VWS V14.01,2013-05-06 04:31:00,
2013-05-06 00:36:00,53.6,47.6,29.91,ENE,69,4.0,9.0,80,0.00,,---,0.00,VWS V14.01,2013-05-06 04:36:00,
2013-05-06 00:41:00,53.9,47.5,29.91,SE,127,6.0,10.0,79,0.00,,---,0.00,VWS V14.01,2013-05-06 04:41:00,
2013-05-06 00:46:00,54.1,48.1,29.90,ENE,66,7.0,10.0,80,0.00,,---,0.00,VWS V14.01,2013-05-06 04:46:00,
2013-05-06 00:51:00,54.1,48.1,29.91,ENE,69,10.0,10.0,80,0.00,,---,0.00,VWS V14.01,2013-05-06 04:51:00,
2013-05-06 00:56:00,54.4,48.4,29.90,ENE,68,7.0,11.0,80,0.00,,---,0.00,VWS V14.01,2013-05-06 04:56:00,
2013-05-06 01:00:00,54.5,48.8,29.90,East,82,7.0,11.0,81,0.00,,---,0.00,VWS V14.01,2013-05-06 05:00:00,
2013-05-06 01:01:00,54.5,48.8,29.90,ENE,78,5.0,11.0,81,0.00,,---,0.00,VWS V14.01,2013-05-06 05:01:00,
2013-05-06 01:06:00,54.8,49.1,29.90,East,96,7.0,11.0,81,0.00,,---,0.00,VWS V14.01,2013-05-06 05:06:00,
2013-05-06 01:11:00,55.0,49.6,29.90,East,98,14.0,14.0,82,0.01,,---,0.01,VWS V14.01,2013-05-06 05:11:00,
2013-05-06 01:16:00,55.1,50.0,29.90,ENE,66,10.0,14.0,83,0.01,,---,0.01,VWS V14.01,2013-05-06 05:16:00,
2013-05-06 01:21:00,55.4,50.0,29.89,ESE,107,7.0,14.0,82,0.01,,---,0.01,VWS V14.01,2013-05-06 05:21:00,
2013-05-06 01:26:00,55.6,50.2,29.89,NE,49,5.0,14.0,82,0.01,,---,0.01,VWS V14.01,2013-05-06 05:26:00,
2013-05-06 01:30:00,55.9,50.2,29.90,East,101,7.0,14.0,81,0.01,,---,0.01,VWS V14.01,2013-05-06 05:30:00,
2013-05-06 01:31:00,55.9,50.2,29.89,ENE,57,13.0,14.0,81,0.01,,---,0.01,VWS V14.01,2013-05-06 05:31:00,
2013-05-06 01:36:00,56.2,50.5,29.90,ENE,62,9.0,15.0,81,0.01,,---,0.01,VWS V14.01,2013-05-06 05:36:00,
2013-05-06 01:41:00,56.3,50.5,29.90,ENE,68,5.0,15.0,81,0.01,,---,0.01,VWS V14.01,2013-05-06 05:41:00,
2013-05-06 01:46:00,56.3,50.5,29.89,ENE,74,5.0,15.0,81,0.01,,---,0.01,VWS V14.01,2013-05-06 05:46:00,
2013-05-06 01:51:00,56.3,50.5,29.89,East,87,8.0,15.0,81,0.01,,---,0.01,VWS V14.01,2013-05-06 05:51:00,
2013-05-06 01:56:00,56.3,50.5,29.89,East,83,8.0,15.0,81,0.01,,---,0.01,VWS V14.01,2013-05-06 05:56:00,
2013-05-06 02:00:00,56.2,50.8,29.89,ENE,75,9.0,15.0,82,0.01,,---,0.01,VWS V14.01,2013-05-06 06:00:00,
2013-05-06 02:01:00,56.2,50.8,29.89,NE,54,4.0,9.0,82,0.01,,---,0.01,VWS V14.01,2013-05-06 06:01:00,
2013-05-06 02:06:00,56.2,50.5,29.89,ENE,75,9.0,14.0,81,0.01,,---,0.01,VWS V14.01,2013-05-06 06:06:00,
2013-05-06 02:11:00,56.3,50.5,29.89,ENE,67,5.0,15.0,81,0.01,,---,0.01,VWS V14.01,2013-05-06 06:11:00,
2013-05-06 02:16:00,56.2,50.1,29.88,ENE,68,10.0,15.0,80,0.01,,---,0.01,VWS V14.01,2013-05-06 06:16:00,
2013-05-06 02:21:00,56.2,50.1,29.88,East,82,7.0,15.0,80,0.01,,---,0.01,VWS V14.01,2013-05-06 06:21:00,
2013-05-06 02:26:00,56.2,49.8,29.88,ENE,62,5.0,15.0,79,0.01,,---,0.01,VWS V14.01,2013-05-06 06:26:00,
2013-05-06 02:30:00,56.2,49.8,29.88,ENE,75,12.0,15.0,79,0.01,,---,0.01,VWS V14.01,2013-05-06 06:30:00,
2013-05-06 02:31:00,56.0,49.6,29.88,East,101,9.0,12.0,79,0.00,,---,0.01,VWS V14.01,2013-05-06 06:31:00,
2013-05-06 02:36:00,56.2,49.8,29.88,East,80,8.0,12.0,79,0.00,,---,0.01,VWS V14.01,2013-05-06 06:36:00,
2013-05-06 02:41:00,56.0,49.6,29.87,ENE,78,7.0,13.0,79,0.00,,---,0.01,VWS V14.01,2013-05-06 06:41:00,
2013-05-06 02:46:00,56.0,49.6,29.87,East,86,7.0,13.0,79,0.00,,---,0.01,VWS V14.01,2013-05-06 06:46:00,
2013-05-06 02:51:00,55.9,49.5,29.86,ESE,107,10.0,13.0,79,0.00,,---,0.01,VWS V14.01,2013-05-06 06:51:00,
2013-05-06 02:56:00,55.9,49.5,29.87,East,88,9.0,13.0,79,0.00,,---,0.01,VWS V14.01,2013-05-06 06:56:00,
2013-05-06 03:00:00,55.9,49.5,29.86,East,79,7.0,16.0,79,0.00,,---,0.01,VWS V14.01,2013-05-06 07:00:00,
2013-05-06 03:01:00,55.9,49.5,29.86,East,79,10.0,14.0,79,0.00,,---,0.01,VWS V14.01,2013-05-06 07:01:00,
2013-05-06 03:06:00,55.9,49.5,29.86,East,84,14.0,15.0,79,0.00,,---,0.01,VWS V14.01,2013-05-06 07:06:00,
2013-05-06 03:11:00,55.9,49.5,29.86,East,84,7.0,15.0,79,0.00,,---,0.01,VWS V14.01,2013-05-06 07:11:00,
2013-05-06 03:16:00,55.9,49.2,29.86,NE,40,7.0,15.0,78,0.00,,---,0.01,VWS V14.01,2013-05-06 07:16:00,
2013-05-06 03:21:00,55.9,49.2,29.86,ENE,69,8.0,15.0,78,0.00,,---,0.01,VWS V14.01,2013-05-06 07:21:00,
2013-05-06 03:26:00,55.9,49.2,29.86,ESE,103,9.0,15.0,78,0.00,,---,0.01,VWS V14.01,2013-05-06 07:26:00,
2013-05-06 03:30:00,55.9,49.2,29.86,East,82,6.0,17.0,78,0.00,,---,0.01,VWS V14.01,2013-05-06 07:30:00,
2013-05-06 03:31:00,55.9,49.2,29.86,ENE,61,7.0,10.0,78,0.00,,---,0.01,VWS V14.01,2013-05-06 07:31:00,
2013-05-06 03:36:00,55.7,49.0,29.86,ENE,59,10.0,16.0,78,0.00,,---,0.01,VWS V14.01,2013-05-06 07:36:00,
2013-05-06 03:41:00,55.7,49.3,29.86,ESE,103,5.0,16.0,79,0.00,,---,0.01,VWS V14.01,2013-05-06 07:41:00,
2013-05-06 03:46:00,55.6,49.2,29.86,ENE,76,13.0,17.0,79,0.00,,---,0.01,VWS V14.01,2013-05-06 07:46:00,
2013-05-06 03:51:00,55.4,49.3,29.86,ENE,76,5.0,17.0,80,0.00,,---,0.01,VWS V14.01,2013-05-06 07:51:00,
2013-05-06 03:56:00,55.4,49.3,29.86,ENE,65,10.0,17.0,80,0.00,,---,0.01,VWS V14.01,2013-05-06 07:56:00,
2013-05-06 04:00:00,55.3,48.9,29.86,ENE,59,10.0,17.0,79,0.00,,---,0.01,VWS V14.01,2013-05-06 08:00:00,
2013-05-06 04:01:00,55.3,49.6,29.86,ENE,78,16.0,16.0,81,0.00,,---,0.01,VWS V14.01,2013-05-06 08:01:00,
2013-05-06 04:06:00,55.3,49.6,29.86,ESE,107,7.0,16.0,81,0.00,,---,0.01,VWS V14.01,2013-05-06 08:06:00,
2013-05-06 04:11:00,55.1,49.7,29.86,ENE,63,5.0,16.0,82,0.00,,---,0.01,VWS V14.01,2013-05-06 08:11:00,
2013-05-06 04:16:00,55.0,49.9,29.85,ENE,65,5.0,16.0,83,0.00,,---,0.01,VWS V14.01,2013-05-06 08:16:00,
2013-05-06 04:21:00,54.7,50.0,29.86,ENE,73,10.0,16.0,84,0.00,,---,0.01,VWS V14.01,2013-05-06 08:21:00,
2013-05-06 04:26:00,54.5,50.1,29.86,ENE,66,5.0,16.0,85,0.00,,---,0.01,VWS V14.01,2013-05-06 08:26:00,
2013-05-06 04:30:00,54.4,50.0,29.85,East,96,7.0,16.0,85,0.00,,---,0.01,VWS V14.01,2013-05-06 08:30:00,
2013-05-06 04:31:00,54.4,50.0,29.85,ENE,76,5.0,7.0,85,0.00,,---,0.01,VWS V14.01,2013-05-06 08:31:00,
2013-05-06 04:36:00,54.2,50.1,29.85,ENE,75,3.0,14.0,86,0.00,,---,0.01,VWS V14.01,2013-05-06 08:36:00,
2013-05-06 04:41:00,54.1,50.3,29.85,East,79,8.0,14.0,87,0.00,,---,0.01,VWS V14.01,2013-05-06 08:41:00,
2013-05-06 04:46:00,54.1,50.3,29.85,ENE,75,5.0,14.0,87,0.00,,---,0.01,VWS V14.01,2013-05-06 08:46:00,
2013-05-06 04:51:00,54.1,50.6,29.86,ENE,67,5.0,14.0,88,0.00,,---,0.01,VWS V14.01,2013-05-06 08:51:00,
2013-05-06 04:56:00,54.1,50.6,29.86,ESE,105,10.0,14.0,88,0.01,,---,0.02,VWS V14.01,2013-05-06 08:56:00,
2013-05-06 05:00:00,54.1,50.9,29.86,ENE,62,5.0,14.0,89,0.01,,---,0.02,VWS V14.01,2013-05-06 09:00:00,
2013-05-06 05:01:00,54.1,50.9,29.86,ENE,63,5.0,5.0,89,0.01,,---,0.02,VWS V14.01,2013-05-06 09:01:00,
2013-05-06 05:06:00,54.1,50.9,29.86,ESE,102,7.0,11.0,89,0.02,,---,0.03,VWS V14.01,2013-05-06 09:06:00,
2013-05-06 05:11:00,54.1,50.9,29.86,ESE,116,5.0,11.0,89,0.02,,---,0.03,VWS V14.01,2013-05-06 09:11:00,
2013-05-06 05:16:00,54.1,51.2,29.86,East,89,8.0,11.0,90,0.02,,---,0.03,VWS V14.01,2013-05-06 09:16:00,
2013-05-06 05:21:00,54.1,51.2,29.86,ENE,65,9.0,11.0,90,0.03,,---,0.04,VWS V14.01,2013-05-06 09:21:00,
2013-05-06 05:26:00,54.1,51.2,29.86,ENE,73,7.0,13.0,90,0.04,,---,0.05,VWS V14.01,2013-05-06 09:26:00,
2013-05-06 05:30:00,54.2,51.6,29.86,ENE,78,4.0,13.0,91,0.05,,---,0.06,VWS V14.01,2013-05-06 09:30:00,
2013-05-06 05:31:00,54.2,51.6,29.86,East,84,7.0,10.0,91,0.05,,---,0.06,VWS V14.01,2013-05-06 09:31:00,
2013-05-06 05:36:00,54.2,51.6,29.86,ENE,62,8.0,11.0,91,0.06,,---,0.07,VWS V14.01,2013-05-06 09:36:00,
2013-05-06 05:41:00,54.2,51.6,29.86,East,94,3.0,11.0,91,0.06,,---,0.07,VWS V14.01,2013-05-06 09:41:00,
2013-05-06 05:46:00,54.2,51.6,29.86,East,101,10.0,15.0,91,0.06,,---,0.07,VWS V14.01,2013-05-06 09:46:00,
2013-05-06 05:51:00,54.4,52.1,29.86,ESE,118,5.0,15.0,92,0.07,,---,0.08,VWS V14.01,2013-05-06 09:51:00,
2013-05-06 05:56:00,54.4,52.1,29.86,ENE,67,2.0,15.0,92,0.07,,---,0.08,VWS V14.01,2013-05-06 09:56:00,
2013-05-06 06:00:00,54.4,52.1,29.86,ENE,76,4.0,15.0,92,0.08,,---,0.09,VWS V14.01,2013-05-06 10:00:00,
2013-05-06 06:01:00,54.4,52.1,29.86,ESE,102,8.0,8.0,92,0.07,,---,0.09,VWS V14.01,2013-05-06 10:01:00,
2013-05-06 06:06:00,54.4,52.1,29.86,East,94,9.0,15.0,92,0.07,,---,0.09,VWS V14.01,2013-05-06 10:06:00,
2013-05-06 06:11:00,54.4,52.1,29.86,ENE,71,8.0,15.0,92,0.08,,---,0.10,VWS V14.01,2013-05-06 10:11:00,
2013-05-06 06:16:00,54.4,52.1,29.87,ESE,123,10.0,15.0,92,0.08,,---,0.10,VWS V14.01,2013-05-06 10:16:00,
2013-05-06 06:21:00,54.4,52.1,29.86,East,98,1.0,15.0,92,0.09,,---,0.11,VWS V14.01,2013-05-06 10:21:00,
2013-05-06 06:26:00,54.4,52.1,29.86,ENE,70,4.0,15.0,92,0.09,,---,0.11,VWS V14.01,2013-05-06 10:26:00,
2013-05-06 06:30:00,54.4,52.1,29.87,ESE,112,14.0,15.0,92,0.10,,---,0.12,VWS V14.01,2013-05-06 10:30:00,
2013-05-06 06:31:00,54.4,52.1,29.86,East,84,5.0,14.0,92,0.06,,---,0.12,VWS V14.01,2013-05-06 10:31:00,
2013-05-06 06:36:00,54.4,52.1,29.86,East,82,5.0,14.0,92,0.06,,---,0.12,VWS V14.01,2013-05-06 10:36:00,
2013-05-06 06:41:00,54.4,52.1,29.86,ENE,66,5.0,14.0,92,0.06,,---,0.12,VWS V14.01,2013-05-06 10:41:00,
2013-05-06 06:46:00,54.4,52.1,29.86,ENE,71,3.0,14.0,92,0.07,,---,0.13,VWS V14.01,2013-05-06 10:46:00,
2013-05-06 06:51:00,54.4,52.1,29.87,ENE,68,4.0,14.0,92,0.07,,---,0.13,VWS V14.01,2013-05-06 10:51:00,
2013-05-06 06:56:00,54.4,52.1,29.87,East,97,7.0,14.0,92,0.07,,---,0.13,VWS V14.01,2013-05-06 10:56:00,
2013-05-06 07:00:00,54.4,52.1,29.87,East,83,5.0,14.0,92,0.09,,---,0.15,VWS V14.01,2013-05-06 11:00:00,
2013-05-06 07:01:00,54.4,52.1,29.87,ENE,67,4.0,5.0,92,0.06,,---,0.15,VWS V14.01,2013-05-06 11:01:00,
2013-05-06 07:06:00,54.4,52.1,29.87,ENE,66,4.0,10.0,92,0.07,,---,0.16,VWS V14.01,2013-05-06 11:06:00,
2013-05-06 07:11:00,54.2,51.9,29.87,ENE,71,10.0,12.0,92,0.08,,---,0.17,VWS V14.01,2013-05-06 11:11:00,
2013-05-06 07:16:00,54.2,52.2,29.87,East,98,7.0,12.0,93,0.09,,---,0.18,VWS V14.01,2013-05-06 11:16:00,
2013-05-06 07:21:00,54.2,52.2,29.87,ENE,67,4.0,12.0,93,0.09,,---,0.18,VWS V14.01,2013-05-06 11:21:00,
2013-05-06 07:26:00,54.2,52.2,29.88,ENE,78,4.0,12.0,93,0.10,,---,0.19,VWS V14.01,2013-05-06 11:26:00,
2013-05-06 07:30:00,54.2,52.2,29.88,East,96,5.0,13.0,93,0.10,,---,0.19,VWS V14.01,2013-05-06 11:30:00,
2013-05-06 07:31:00,54.2,52.2,29.88,East,84,3.0,5.0,93,0.07,,---,0.19,VWS V14.01,2013-05-06 11:31:00,
2013-05-06 07:36:00,54.2,52.2,29.88,East,82,8.0,13.0,93,0.07,,---,0.19,VWS V14.01,2013-05-06 11:36:00,
2013-05-06 07:41:00,54.2,52.2,29.88,ENE,66,8.0,13.0,93,0.07,,---,0.19,VWS V14.01,2013-05-06 11:41:00,
2013-05-06 07:46:00,54.2,52.2,29.88,ENE,76,7.0,13.0,93,0.07,,---,0.19,VWS V14.01,2013-05-06 11:46:00,
2013-05-06 07:51:00,54.2,52.2,29.88,ENE,70,7.0,14.0,93,0.07,,---,0.19,VWS V14.01,2013-05-06 11:51:00,
2013-05-06 07:56:00,54.2,52.2,29.88,East,83,3.0,14.0,93,0.07,,---,0.19,VWS V14.01,2013-05-06 11:56:00,
2013-05-06 08:00:00,54.4,52.4,29.88,ENE,69,8.0,14.0,93,0.07,,---,0.19,VWS V14.01,2013-05-06 12:00:00,
2013-05-06 08:01:00,54.4,52.4,29.88,East,91,8.0,8.0,93,0.04,,---,0.19,VWS V14.01,2013-05-06 12:01:00,
2013-05-06 08:06:00,54.4,52.4,29.88,ENE,69,8.0,14.0,93,0.04,,---,0.19,VWS V14.01,2013-05-06 12:06:00,
2013-05-06 08:11:00,54.5,52.5,29.88,ENE,72,10.0,14.0,93,0.04,,---,0.19,VWS V14.01,2013-05-06 12:11:00,
2013-05-06 08:16:00,54.5,52.5,29.89,ENE,71,3.0,14.0,93,0.04,,---,0.19,VWS V14.01,2013-05-06 12:16:00,
2013-05-06 08:21:00,54.7,52.7,29.88,ENE,75,8.0,14.0,93,0.04,,---,0.19,VWS V14.01,2013-05-06 12:21:00,
2013-05-06 08:26:00,54.7,52.4,29.88,ESE,106,8.0,14.0,92,0.04,,---,0.19,VWS V14.01,2013-05-06 12:26:00,
2013-05-06 08:30:00,54.7,52.4,29.88,ESE,111,8.0,14.0,92,0.04,,---,0.19,VWS V14.01,2013-05-06 12:30:00,
2013-05-06 08:31:00,54.7,52.4,29.88,ENE,78,7.0,8.0,92,0.00,,---,0.19,VWS V14.01,2013-05-06 12:31:00,
2013-05-06 08:35:00,54.8,52.5,29.89,ENE,72,5.0,11.0,92,0.00,,---,0.19,VWS V14.01,2013-05-06 12:35:00,
2013-05-06 08:40:00,55.0,52.7,29.88,ESE,105,8.0,11.0,92,0.00,,---,0.19,VWS V14.01,2013-05-06 12:40:00,
2013-05-06 08:45:00,55.0,52.7,29.88,East,87,7.0,13.0,92,0.00,,---,0.19,VWS V14.01,2013-05-06 12:45:00,
2013-05-06 08:50:00,55.1,52.8,29.88,ESE,105,4.0,13.0,92,0.00,,---,0.19,VWS V14.01,2013-05-06 12:50:00,
2013-05-06 08:55:00,55.1,52.8,29.88,ENE,75,3.0,13.0,92,0.00,,---,0.19,VWS V14.01,2013-05-06 12:55:00,
2013-05-06 09:00:00,55.3,53.0,29.88,East,90,3.0,3.0,92,0.00,,---,0.19,VWS V14.01,2013-05-06 13:00:00,
2013-05-06 09:05:00,55.1,52.8,29.89,ENE,62,4.0,10.0,92,0.00,,---,0.19,VWS V14.01,2013-05-06 13:05:00,
2013-05-06 09:10:00,55.3,53.0,29.89,East,84,6.0,11.0,92,0.00,,---,0.19,VWS V14.01,2013-05-06 13:10:00,
2013-05-06 09:15:00,55.3,53.0,29.89,ENE,60,5.0,11.0,92,0.00,,---,0.19,VWS V14.01,2013-05-06 13:15:00,
2013-05-06 09:20:00,55.1,52.5,29.90,East,82,3.0,11.0,91,0.00,,---,0.19,VWS V14.01,2013-05-06 13:20:00,
2013-05-06 09:25:00,55.3,52.7,29.90,ENE,69,4.0,11.0,91,0.01,,---,0.20,VWS V14.01,2013-05-06 13:25:00,
2013-05-06 09:30:00,55.4,52.8,29.90,ENE,58,5.0,8.0,91,0.01,,---,0.20,VWS V14.01,2013-05-06 13:30:00,
2013-05-06 09:35:00,55.7,53.1,29.90,East,92,7.0,12.0,91,0.01,,---,0.20,VWS V14.01,2013-05-06 13:35:00,
2013-05-06 09:40:00,56.0,53.4,29.90,ESE,109,7.0,12.0,91,0.01,,---,0.20,VWS V14.01,2013-05-06 13:40:00,
2013-05-06 09:45:00,56.0,53.4,29.90,ENE,61,9.0,16.0,91,0.01,,---,0.20,VWS V14.01,2013-05-06 13:45:00,
2013-05-06 09:50:00,56.0,53.1,29.90,East,84,3.0,16.0,90,0.01,,---,0.20,VWS V14.01,2013-05-06 13:50:00,
2013-05-06 09:55:00,56.2,53.3,29.90,ENE,65,5.0,16.0,90,0.01,,---,0.20,VWS V14.01,2013-05-06 13:55:00,
2013-05-06 10:00:00,56.3,53.4,29.90,NE,55,7.0,16.0,90,0.01,,---,0.20,VWS V14.01,2013-05-06 14:00:00,
2013-05-06 10:01:00,56.3,53.4,29.90,East,82,5.0,10.0,90,0.01,,---,0.20,VWS V14.01,2013-05-06 14:01:00,
2013-05-06 10:05:00,56.7,53.8,29.90,East,93,13.0,13.0,90,0.01,,---,0.20,VWS V14.01,2013-05-06 14:05:00,
2013-05-06 10:10:00,57.0,53.8,29.90,East,80,8.0,13.0,89,0.01,,---,0.20,VWS V14.01,2013-05-06 14:10:00,
2013-05-06 10:15:00,57.0,53.5,29.90,ENE,70,8.0,15.0,88,0.01,,---,0.20,VWS V14.01,2013-05-06 14:15:00,
2013-05-06 10:20:00,57.2,53.4,29.90,ENE,69,8.0,17.0,87,0.01,,---,0.20,VWS V14.01,2013-05-06 14:20:00,
2013-05-06 10:25:00,57.6,53.5,29.90,ENE,66,12.0,17.0,86,0.01,,---,0.20,VWS V14.01,2013-05-06 14:25:00,
2013-05-06 10:30:00,58.1,53.6,29.90,ENE,67,5.0,8.0,85,0.00,,---,0.20,VWS V14.01,2013-05-06 14:30:00,
2013-05-06 10:35:00,58.6,53.8,29.90,ESE,106,2.0,12.0,84,0.00,,---,0.20,VWS V14.01,2013-05-06 14:35:00,
2013-05-06 10:40:00,58.7,53.2,29.91,NE,55,5.0,15.0,82,0.00,,---,0.20,VWS V14.01,2013-05-06 14:40:00,
2013-05-06 10:45:00,58.9,53.4,29.91,ENE,76,7.0,15.0,82,0.00,,---,0.20,VWS V14.01,2013-05-06 14:45:00,
2013-05-06 10:50:00,59.0,53.2,29.91,ENE,71,4.0,16.0,81,0.00,,---,0.20,VWS V14.01,2013-05-06 14:50:00,
2013-05-06 10:55:00,59.6,53.4,29.90,ENE,74,5.0,16.0,80,0.00,,---,0.20,VWS V14.01,2013-05-06 14:55:00,
2013-05-06 11:04:00,61.0,53.8,29.90,ENE,64,13.0,13.0,77,0.00,,---,0.20,VWS V14.01,2013-05-06 15:04:00,
2013-05-06 11:09:00,60.5,52.5,29.90,NE,51,4.0,16.0,75,0.00,,---,0.20,VWS V14.01,2013-05-06 15:09:00,
2013-05-06 11:14:00,60.2,52.3,29.90,ENE,61,9.0,17.0,75,0.00,,---,0.20,VWS V14.01,2013-05-06 15:14:00,
2013-05-06 11:19:00,60.4,52.8,29.90,NE,44,7.0,17.0,76,0.00,,---,0.20,VWS V14.01,2013-05-06 15:19:00,
2013-05-06 11:24:00,60.5,53.3,29.91,ESE,103,5.0,17.0,77,0.00,,---,0.20,VWS V14.01,2013-05-06 15:24:00,
2013-05-06 11:29:00,60.5,53.3,29.91,East,87,9.0,17.0,77,0.00,,---,0.20,VWS V14.01,2013-05-06 15:29:00,
2013-05-06 11:34:00,60.7,53.1,29.90,East,82,8.0,17.0,76,0.00,,---,0.20,VWS V14.01,2013-05-06 15:34:00,
2013-05-06 11:39:00,61.0,53.0,29.91,ENE,67,5.0,17.0,75,0.00,,---,0.20,VWS V14.01,2013-05-06 15:39:00,
2013-05-06 11:44:00,61.2,53.2,29.91,East,87,5.0,17.0,75,0.00,,---,0.20,VWS V14.01,2013-05-06 15:44:00,
2013-05-06 11:49:00,61.2,52.5,29.91,East,90,8.0,17.0,73,0.00,,---,0.20,VWS V14.01,2013-05-06 15:49:00,
2013-05-06 11:54:00,61.2,52.5,29.91,SE,124,6.0,17.0,73,0.00,,---,0.20,VWS V14.01,2013-05-06 15:54:00,
2013-05-06 11:59:00,61.5,53.2,29.91,ENE,76,8.0,17.0,74,0.00,,---,0.20,VWS V14.01,2013-05-06 15:59:00,
2013-05-06 12:04:00,61.3,52.6,29.91,East,96,7.0,17.0,73,0.00,,---,0.20,VWS V14.01,2013-05-06 16:04:00,
2013-05-06 12:09:00,61.2,52.5,29.91,East,101,16.0,17.0,73,0.00,,---,0.20,VWS V14.01,2013-05-06 16:09:00,
2013-05-06 12:14:00,61.0,52.3,29.91,ESE,115,5.0,17.0,73,0.00,,---,0.20,VWS V14.01,2013-05-06 16:14:00,
2013-05-06 12:19:00,61.0,52.7,29.91,East,86,7.0,17.0,74,0.00,,---,0.20,VWS V14.01,2013-05-06 16:19:00,
2013-05-06 12:24:00,60.9,52.2,29.91,ESE,102,3.0,17.0,73,0.00,,---,0.20,VWS V14.01,2013-05-06 16:24:00,
2013-05-06 12:29:00,61.0,52.3,29.91,ENE,69,7.0,17.0,73,0.00,,---,0.20,VWS V14.01,2013-05-06 16:29:00,
2013-05-06 12:35:00,61.3,52.6,29.91,ENE,70,5.0,17.0,73,0.00,,---,0.20,VWS V14.01,2013-05-06 16:35:00,
2013-05-06 12:40:00,61.6,52.5,29.91,SE,124,8.0,17.0,72,0.00,,---,0.20,VWS V14.01,2013-05-06 16:40:00,
2013-05-06 12:45:00,61.8,52.3,29.91,ENE,72,9.0,17.0,71,0.00,,---,0.20,VWS V14.01,2013-05-06 16:45:00,
2013-05-06 12:50:00,61.8,52.3,29.91,East,96,7.0,17.0,71,0.00,,---,0.20,VWS V14.01,2013-05-06 16:50:00,
2013-05-06 12:55:00,61.6,51.7,29.91,East,80,2.0,17.0,70,0.00,,---,0.20,VWS V14.01,2013-05-06 16:55:00,
2013-05-06 13:00:00,61.8,52.3,29.91,East,96,3.0,17.0,71,0.00,,---,0.20,VWS V14.01,2013-05-06 17:00:00,
2013-05-06 13:05:00,62.0,52.5,29.91,ESE,105,4.0,17.0,71,0.00,,---,0.20,VWS V14.01,2013-05-06 17:05:00,
2013-05-06 13:10:00,62.0,52.5,29.91,ENE,78,2.0,4.0,71,0.00,,---,0.20,VWS V14.01,2013-05-06 17:10:00,
2013-05-06 13:15:00,61.8,52.3,29.91,ESE,108,8.0,8.0,71,0.00,,---,0.20,VWS V14.01,2013-05-06 17:15:00,
2013-05-06 13:20:00,61.6,51.7,29.91,ENE,77,5.0,8.0,70,0.00,,---,0.20,VWS V14.01,2013-05-06 17:20:00,
2013-05-06 13:25:00,61.6,51.7,29.91,East,91,8.0,8.0,70,0.00,,---,0.20,VWS V14.01,2013-05-06 17:25:00,
2013-05-06 13:30:00,61.8,51.9,29.91,East,80,6.0,8.0,70,0.00,,---,0.20,VWS V14.01,2013-05-06 17:30:00,
2013-05-06 13:35:00,62.0,52.1,29.91,NE,50,8.0,8.0,70,0.00,,---,0.20,VWS V14.01,2013-05-06 17:35:00,
2013-05-06 13:40:00,62.1,52.2,29.91,ESE,107,9.0,9.0,70,0.00,,---,0.20,VWS V14.01,2013-05-06 17:40:00,
2013-05-06 13:45:00,62.4,52.1,29.90,ESE,117,5.0,9.0,69,0.00,,---,0.20,VWS V14.01,2013-05-06 17:45:00,
2013-05-06 13:50:00,62.6,51.9,29.90,ESE,108,4.0,9.0,68,0.00,,---,0.20,VWS V14.01,2013-05-06 17:50:00,
2013-05-06 13:55:00,63.2,52.9,29.90,East,100,13.0,13.0,69,0.00,,---,0.20,VWS V14.01,2013-05-06 17:55:00,
2013-05-06 14:00:00,63.2,52.5,29.90,ESE,102,7.0,13.0,68,0.00,,---,0.20,VWS V14.01,2013-05-06 18:00:00,
2013-05-06 14:05:00,62.9,51.8,29.90,ESE,112,8.0,13.0,67,0.00,,---,0.20,VWS V14.01,2013-05-06 18:05:00,
2013-05-06 14:10:00,62.6,52.3,29.90,East,94,6.0,13.0,69,0.00,,---,0.20,VWS V14.01,2013-05-06 18:10:00,
2013-05-06 14:15:00,62.7,53.2,29.90,East,89,5.0,13.0,71,0.00,,---,0.20,VWS V14.01,2013-05-06 18:15:00,
2013-05-06 14:20:00,63.1,52.0,29.90,ESE,115,3.0,13.0,67,0.00,,---,0.20,VWS V14.01,2013-05-06 18:20:00,
2013-05-06 14:25:00,63.1,52.4,29.90,East,90,8.0,13.0,68,0.00,,---,0.20,VWS V14.01,2013-05-06 18:25:00,
2013-05-06 14:30:00,63.4,52.7,29.90,East,90,6.0,13.0,68,0.00,,---,0.20,VWS V14.01,2013-05-06 18:30:00,
2013-05-06 14:35:00,63.4,52.3,29.90,ESE,104,8.0,13.0,67,0.00,,---,0.20,VWS V14.01,2013-05-06 18:35:00,
2013-05-06 14:40:00,63.2,52.1,29.90,ESE,104,4.0,13.0,67,0.00,,---,0.20,VWS V14.01,2013-05-06 18:40:00,
2013-05-06 14:45:00,63.5,53.2,29.90,East,100,5.0,13.0,69,0.00,,---,0.20,VWS V14.01,2013-05-06 18:45:00,
2013-05-06 14:50:00,63.5,52.8,29.90,NE,55,9.0,13.0,68,0.00,,---,0.20,VWS V14.01,2013-05-06 18:50:00,
2013-05-06 14:55:00,63.4,52.7,29.90,ENE,68,7.0,13.0,68,0.00,,---,0.20,VWS V14.01,2013-05-06 18:55:00,
2013-05-06 15:00:00,63.2,52.5,29.90,NE,52,5.0,13.0,68,0.00,,---,0.20,VWS V14.01,2013-05-06 19:00:00,
2013-05-06 15:05:00,63.1,53.2,29.90,ENE,68,8.0,13.0,70,0.00,,---,0.20,VWS V14.01,2013-05-06 19:05:00,
2013-05-06 15:11:00,62.6,53.1,29.90,ENE,70,11.0,11.0,71,0.00,,---,0.20,VWS V14.01,2013-05-06 19:11:00,
2013-05-06 15:16:00,62.9,53.4,29.89,NE,44,3.0,11.0,71,0.00,,---,0.20,VWS V14.01,2013-05-06 19:16:00,
2013-05-06 15:21:00,62.6,52.7,29.89,ENE,65,11.0,11.0,70,0.00,,---,0.20,VWS V14.01,2013-05-06 19:21:00,
2013-05-06 15:26:00,62.3,52.8,29.89,ENE,74,7.0,11.0,71,0.00,,---,0.20,VWS V14.01,2013-05-06 19:26:00,
2013-05-06 15:31:00,62.0,52.5,29.89,ENE,77,11.0,11.0,71,0.00,,---,0.20,VWS V14.01,2013-05-06 19:31:00,
2013-05-06 15:36:00,61.8,52.3,29.89,SE,136,6.0,11.0,71,0.00,,---,0.20,VWS V14.01,2013-05-06 19:36:00,
2013-05-06 15:41:00,61.8,52.7,29.89,ENE,61,8.0,11.0,72,0.00,,---,0.20,VWS V14.01,2013-05-06 19:41:00,
2013-05-06 15:46:00,61.8,52.3,29.89,ENE,74,7.0,11.0,71,0.00,,---,0.20,VWS V14.01,2013-05-06 19:46:00,
2013-05-06 15:51:00,61.8,52.7,29.89,ENE,61,4.0,11.0,72,0.00,,---,0.20,VWS V14.01,2013-05-06 19:51:00,
2013-05-06 15:56:00,61.6,52.5,29.89,NE,54,10.0,11.0,72,0.00,,---,0.20,VWS V14.01,2013-05-06 19:56:00,
2013-05-06 16:01:00,61.6,52.9,29.89,ENE,63,7.0,11.0,73,0.00,,---,0.20,VWS V14.01,2013-05-06 20:01:00,
2013-05-06 16:06:00,61.6,52.9,29.88,ENE,73,8.0,11.0,73,0.00,,---,0.20,VWS V14.01,2013-05-06 20:06:00,
2013-05-06 16:11:00,61.6,52.9,29.88,ENE,58,4.0,11.0,73,0.00,,---,0.20,VWS V14.01,2013-05-06 20:11:00,
2013-05-06 16:16:00,61.8,53.1,29.88,ENE,74,14.0,14.0,73,0.00,,---,0.20,VWS V14.01,2013-05-06 20:16:00,
2013-05-06 16:21:00,62.1,53.3,29.88,NE,44,10.0,14.0,73,0.00,,---,0.20,VWS V14.01,2013-05-06 20:21:00,
2013-05-06 16:26:00,62.6,53.5,29.88,ENE,61,7.0,14.0,72,0.00,,---,0.20,VWS V14.01,2013-05-06 20:26:00,
2013-05-06 16:31:00,62.7,53.2,29.88,East,85,8.0,14.0,71,0.00,,---,0.20,VWS V14.01,2013-05-06 20:31:00,
2013-05-06 16:36:00,62.9,53.4,29.87,East,85,7.0,14.0,71,0.00,,---,0.20,VWS V14.01,2013-05-06 20:36:00,
2013-05-06 16:41:00,63.1,53.2,29.87,East,86,7.0,14.0,70,0.00,,---,0.20,VWS V14.01,2013-05-06 20:41:00,
2013-05-06 16:46:00,63.1,53.2,29.87,East,87,5.0,14.0,70,0.00,,---,0.20,VWS V14.01,2013-05-06 20:46:00,
2013-05-06 16:51:00,63.1,52.8,29.87,East,101,5.0,14.0,69,0.00,,---,0.20,VWS V14.01,2013-05-06 20:51:00,
2013-05-06 16:56:00,63.4,53.1,29.86,NE,52,6.0,14.0,69,0.00,,---,0.20,VWS V14.01,2013-05-06 20:56:00,
2013-05-06 17:01:00,63.5,52.8,29.87,ENE,61,12.0,14.0,68,0.00,,---,0.20,VWS V14.01,2013-05-06 21:01:00,
2013-05-06 17:06:00,63.9,52.3,29.87,ENE,65,8.0,14.0,66,0.00,,---,0.20,VWS V14.01,2013-05-06 21:06:00,
2013-05-06 17:11:00,65.0,53.0,29.86,NE,34,11.0,14.0,65,0.00,,---,0.20,VWS V14.01,2013-05-06 21:11:00,
2013-05-06 17:16:00,65.3,54.1,29.87,NE,55,5.0,14.0,67,0.00,,---,0.20,VWS V14.01,2013-05-06 21:16:00,
2013-05-06 17:22:00,65.0,52.5,29.87,ESE,102,7.0,14.0,64,0.00,,---,0.20,VWS V14.01,2013-05-06 21:22:00,
2013-05-06 17:27:00,64.5,52.9,29.87,East,85,7.0,14.0,66,0.00,,---,0.20,VWS V14.01,2013-05-06 21:27:00,
2013-05-06 17:32:00,64.3,52.3,29.87,ESE,103,4.0,14.0,65,0.00,,---,0.20,VWS V14.01,2013-05-06 21:32:00,
2013-05-06 17:37:00,64.7,53.1,29.87,ENE,61,3.0,14.0,66,0.00,,---,0.20,VWS V14.01,2013-05-06 21:37:00,
2013-05-06 17:42:00,65.0,52.5,29.86,East,83,6.0,14.0,64,0.00,,---,0.20,VWS V14.01,2013-05-06 21:42:00,
2013-05-06 17:47:00,64.7,52.3,29.87,East,84,10.0,14.0,64,0.00,,---,0.20,VWS V14.01,2013-05-06 21:47:00,
2013-05-06 17:52:00,64.3,52.7,29.87,East,85,18.0,18.0,66,0.00,,---,0.20,VWS V14.01,2013-05-06 21:52:00,
2013-05-06 17:57:00,63.9,52.3,29.87,East,81,5.0,18.0,66,0.00,,---,0.20,VWS V14.01,2013-05-06 21:57:00,
2013-05-06 18:02:00,63.9,52.7,29.87,ENE,65,9.0,18.0,67,0.00,,---,0.20,VWS V14.01,2013-05-06 22:02:00,
2013-05-06 18:07:00,63.7,52.5,29.87,East,88,10.0,18.0,67,0.00,,---,0.20,VWS V14.01,2013-05-06 22:07:00,
2013-05-06 18:12:00,63.7,52.1,29.87,SE,140,7.0,18.0,66,0.00,,---,0.20,VWS V14.01,2013-05-06 22:12:00,
2013-05-06 18:17:00,64.2,51.8,29.87,ENE,68,10.0,18.0,64,0.00,,---,0.20,VWS V14.01,2013-05-06 22:17:00,
2013-05-06 18:22:00,64.5,52.5,29.87,East,82,8.0,18.0,65,0.00,,---,0.20,VWS V14.01,2013-05-06 22:22:00,
2013-05-06 18:27:00,64.8,52.3,29.87,ESE,102,7.0,18.0,64,0.00,,---,0.20,VWS V14.01,2013-05-06 22:27:00,
2013-05-06 18:32:00,64.7,52.7,29.88,East,88,6.0,18.0,65,0.00,,---,0.20,VWS V14.01,2013-05-06 22:32:00,
2013-05-06 18:37:00,64.2,52.2,29.87,ESE,115,4.0,18.0,65,0.00,,---,0.20,VWS V14.01,2013-05-06 22:37:00,
2013-05-06 18:42:00,64.5,52.5,29.87,ESE,119,4.0,18.0,65,0.00,,---,0.20,VWS V14.01,2013-05-06 22:42:00,
2013-05-06 18:47:00,64.5,52.5,29.88,East,81,3.0,18.0,65,0.00,,---,0.20,VWS V14.01,2013-05-06 22:47:00,
2013-05-06 18:52:00,64.0,52.8,29.88,ENE,67,10.0,18.0,67,0.00,,---,0.20,VWS V14.01,2013-05-06 22:52:00,
2013-05-06 18:57:00,63.9,52.7,29.88,ENE,58,9.0,18.0,67,0.00,,---,0.20,VWS V14.01,2013-05-06 22:57:00,
2013-05-06 19:02:00,63.7,52.1,29.88,ENE,69,10.0,18.0,66,0.00,,---,0.20,VWS V14.01,2013-05-06 23:02:00,
2013-05-06 19:07:00,63.9,52.7,29.88,East,98,14.0,14.0,67,0.00,,---,0.20,VWS V14.01,2013-05-06 23:07:00,
2013-05-06 19:12:00,63.7,52.1,29.88,East,96,6.0,14.0,66,0.00,,---,0.20,VWS V14.01,2013-05-06 23:12:00,
2013-05-06 19:17:00,63.5,52.4,29.88,East,87,5.0,14.0,67,0.00,,---,0.20,VWS V14.01,2013-05-06 23:17:00,
2013-05-06 19:22:00,63.4,52.3,29.88,East,87,3.0,14.0,67,0.00,,---,0.20,VWS V14.01,2013-05-06 23:22:00,
2013-05-06 19:27:00,63.4,52.3,29.88,ESE,102,3.0,14.0,67,0.00,,---,0.20,VWS V14.01,2013-05-06 23:27:00,
2013-05-06 19:32:00,63.5,52.8,29.88,East,88,9.0,14.0,68,0.00,,---,0.20,VWS V14.01,2013-05-06 23:32:00,
2013-05-06 19:37:00,63.5,52.4,29.88,East,83,10.0,14.0,67,0.00,,---,0.20,VWS V14.01,2013-05-06 23:37:00,
2013-05-06 19:43:00,63.4,52.3,29.88,ENE,77,4.0,14.0,67,0.00,,---,0.20,VWS V14.01,2013-05-06 23:43:00,
2013-05-06 19:48:00,63.2,52.1,29.89,ESE,109,5.0,14.0,67,0.00,,---,0.20,VWS V14.01,2013-05-06 23:48:00,
2013-05-06 19:53:00,62.9,52.2,29.89,SE,127,8.0,14.0,68,0.00,,---,0.20,VWS V14.01,2013-05-06 23:53:00,
2013-05-06 19:58:00,62.6,52.3,29.89,East,80,5.0,14.0,69,0.00,,---,0.20,VWS V14.01,2013-05-06 23:58:00,
2013-05-06 20:03:00,62.3,52.4,29.89,East,88,5.0,14.0,70,0.00,,---,0.20,VWS V14.01,2013-05-07 00:03:00,
2013-05-06 20:08:00,62.3,52.8,29.90,ESE,103,5.0,14.0,71,0.00,,---,0.20,VWS V14.01,2013-05-07 00:08:00,
2013-05-06 20:13:00,62.1,52.6,29.89,East,86,9.0,14.0,71,0.00,,---,0.20,VWS V14.01,2013-05-07 00:13:00,
2013-05-06 20:18:00,62.0,52.5,29.90,NE,49,7.0,14.0,71,0.00,,---,0.20,VWS V14.01,2013-05-07 00:18:00,
2013-05-06 20:23:00,61.8,52.3,29.90,East,79,7.0,14.0,71,0.00,,---,0.20,VWS V14.01,2013-05-07 00:23:00,
2013-05-06 20:28:00,61.8,52.3,29.90,ESE,103,8.0,14.0,71,0.00,,---,0.20,VWS V14.01,2013-05-07 00:28:00,
2013-05-06 20:33:00,61.8,52.3,29.90,East,88,6.0,14.0,71,0.00,,---,0.20,VWS V14.01,2013-05-07 00:33:00,
2013-05-06 20:38:00,61.6,52.5,29.90,ESE,103,5.0,14.0,72,0.00,,---,0.20,VWS V14.01,2013-05-07 00:38:00,
2013-05-06 20:43:00,61.5,52.4,29.90,East,85,8.0,14.0,72,0.00,,---,0.20,VWS V14.01,2013-05-07 00:43:00,
2013-05-06 20:48:00,61.3,52.2,29.90,ESE,105,5.0,14.0,72,0.00,,---,0.20,VWS V14.01,2013-05-07 00:48:00,
2013-05-06 20:53:00,61.0,52.3,29.90,ENE,76,3.0,14.0,73,0.00,,---,0.20,VWS V14.01,2013-05-07 00:53:00,
2013-05-06 20:58:00,60.9,52.2,29.91,ENE,61,3.0,14.0,73,0.00,,---,0.20,VWS V14.01,2013-05-07 00:58:00,
2013-05-06 21:03:00,60.9,52.6,29.91,ENE,71,4.0,14.0,74,0.00,,---,0.20,VWS V14.01,2013-05-07 01:03:00,
2013-05-06 21:08:00,60.7,52.4,29.91,ENE,74,4.0,14.0,74,0.00,,---,0.20,VWS V14.01,2013-05-07 01:08:00,
2013-05-06 21:13:00,60.5,52.5,29.91,ENE,61,9.0,14.0,75,0.00,,---,0.20,VWS V14.01,2013-05-07 01:13:00,
2013-05-06 21:18:00,60.5,52.5,29.91,East,84,6.0,14.0,75,0.00,,---,0.20,VWS V14.01,2013-05-07 01:18:00,
2013-05-06 21:23:00,60.5,52.5,29.91,ENE,69,4.0,14.0,75,0.00,,---,0.20,VWS V14.01,2013-05-07 01:23:00,
2013-05-06 21:28:00,60.4,52.8,29.91,ENE,69,4.0,14.0,76,0.00,,---,0.20,VWS V14.01,2013-05-07 01:28:00,
2013-05-06 21:33:00,60.4,52.8,29.92,ENE,65,4.0,14.0,76,0.00,,---,0.20,VWS V14.01,2013-05-07 01:33:00,
2013-05-06 21:38:00,60.2,52.6,29.92,ESE,103,7.0,14.0,76,0.00,,---,0.20,VWS V14.01,2013-05-07 01:38:00,
2013-05-06 21:43:00,60.2,52.6,29.92,ENE,68,5.0,14.0,76,0.00,,---,0.20,VWS V14.01,2013-05-07 01:43:00,
2013-05-06 21:48:00,60.2,52.6,29.92,ENE,73,4.0,14.0,76,0.00,,---,0.20,VWS V14.01,2013-05-07 01:48:00,
2013-05-06 21:53:00,60.1,52.5,29.92,ENE,57,5.0,14.0,76,0.00,,---,0.20,VWS V14.01,2013-05-07 01:53:00,
2013-05-06 21:58:00,59.9,52.7,29.92,ENE,61,3.0,14.0,77,0.00,,---,0.20,VWS V14.01,2013-05-07 01:58:00,
2013-05-06 22:03:00,59.8,52.6,29.93,ENE,74,7.0,14.0,77,0.00,,---,0.20,VWS V14.01,2013-05-07 02:03:00,
2013-05-06 22:08:00,59.6,52.7,29.92,ENE,74,8.0,14.0,78,0.00,,---,0.20,VWS V14.01,2013-05-07 02:08:00,
2013-05-06 22:13:00,59.6,52.7,29.93,ENE,69,3.0,14.0,78,0.00,,---,0.20,VWS V14.01,2013-05-07 02:13:00,
2013-05-06 22:18:00,59.6,52.7,29.93,East,89,5.0,14.0,78,0.00,,---,0.20,VWS V14.01,2013-05-07 02:18:00,
2013-05-06 22:24:00,59.5,52.6,29.93,ENE,68,4.0,14.0,78,0.00,,---,0.20,VWS V14.01,2013-05-07 02:24:00,
2013-05-06 22:29:00,59.5,52.6,29.93,ENE,66,5.0,14.0,78,0.00,,---,0.20,VWS V14.01,2013-05-07 02:29:00,
2013-05-06 22:34:00,59.3,52.5,29.93,East,89,2.0,14.0,78,0.00,,---,0.20,VWS V14.01,2013-05-07 02:34:00,
2013-05-06 22:39:00,59.3,52.5,29.93,ENE,66,4.0,4.0,78,0.00,,---,0.20,VWS V14.01,2013-05-07 02:39:00,
2013-05-06 22:44:00,59.2,52.7,29.93,NE,54,3.0,4.0,79,0.00,,---,0.20,VWS V14.01,2013-05-07 02:44:00,
2013-05-06 22:49:00,59.2,52.7,29.94,ENE,63,3.0,4.0,79,0.00,,---,0.20,VWS V14.01,2013-05-07 02:49:00,
2013-05-06 22:54:00,59.0,52.5,29.93,ENE,62,5.0,5.0,79,0.00,,---,0.20,VWS V14.01,2013-05-07 02:54:00,
2013-05-06 22:59:00,59.0,52.8,29.94,ENE,64,4.0,5.0,80,0.00,,---,0.20,VWS V14.01,2013-05-07 02:59:00,
2013-05-06 23:04:00,58.9,52.8,29.94,ENE,64,4.0,5.0,80,0.00,,---,0.20,VWS V14.01,2013-05-07 03:04:00,
2013-05-06 23:09:00,58.9,52.8,29.94,ENE,68,2.0,5.0,80,0.00,,---,0.20,VWS V14.01,2013-05-07 03:09:00,
2013-05-06 23:14:00,58.9,52.8,29.94,NE,56,4.0,5.0,80,0.00,,---,0.20,VWS V14.01,2013-05-07 03:14:00,
2013-05-06 23:19:00,58.7,52.6,29.93,ENE,65,3.0,5.0,80,0.00,,---,0.20,VWS V14.01,2013-05-07 03:19:00,
2013-05-06 23:24:00,58.7,52.6,29.93,ENE,61,7.0,7.0,80,0.00,,---,0.20,VWS V14.01,2013-05-07 03:24:00,
2013-05-06 23:29:00,58.7,52.6,29.93,ENE,69,4.0,7.0,80,0.00,,---,0.20,VWS V14.01,2013-05-07 03:29:00,
2013-05-06 23:34:00,58.9,52.8,29.93,ENE,62,4.0,7.0,80,0.00,,---,0.20,VWS V14.01,2013-05-07 03:34:00,
2013-05-06 23:39:00,58.9,52.8,29.93,ENE,63,2.0,7.0,80,0.00,,---,0.20,VWS V14.01,2013-05-07 03:39:00,
2013-05-06 23:44:00,58.9,52.8,29.93,ENE,69,4.0,7.0,80,0.00,,---,0.20,VWS V14.01,2013-05-07 03:44:00,
2013-05-06 23:49:00,58.7,52.6,29.93,NE,56,5.0,7.0,80,0.00,,---,0.20,VWS V14.01,2013-05-07 03:49:00,
2013-05-06 23:54:00,58.7,52.6,29.93,ENE,74,3.0,7.0,80,0.00,,---,0.20,VWS V14.01,2013-05-07 03:54:00,
2013-05-06 23:59:00,58.7,52.6,29.93,ENE,65,4.0,7.0,80,0.00,,---,0.20,VWS V14.01,2013-05-07 03:59:00,